, AK

(GMT )
Anchorage

Weather History for PANC - June, 2013

Change the Weather History Date:

Saturday, June 22, 2013

  Actual Average Record
Temperature  
Mean Temperature 56 °F 56 °F  
Max Temperature 68 °F 64 °F 79 °F (1997)
Min Temperature 44 °F 49 °F 38 °F (1971)
Degree Days  
Heating Degree Days 9    
Month to date heating degree days 149  
Since 1 June heating degree days 149  
Since 1 July heating degree days 10508  
Cooling Degree Days 0    
Month to date cooling degree days 7  
Year to date cooling degree days 7  
Since 1 June cooling degree days 7  
Growing Degree Days 8 (Base 50)    
Moisture  
Dew Point 43 °F    
Average Humidity 70    
Maximum Humidity 92    
Minimum Humidity 48    
Precipitation  
Precipitation 0.00 in 0.03 in 0.31 in (1978)
Month to date precipitation 0.46 0.68  
Year to date precipitation 6.84 3.92  
Snow  
Snow 0.00 in 0.00 in 0.00 in ()
Month to date snowfall 0.0 0.0  
Since 1 June snowfall 0.0  
Since 1 July snowfall 94.0 74.5  
Snow Depth 0.00 in    
Sea Level Pressure  
Sea Level Pressure 29.92 in    
Wind  
Wind Speed 3 mph (ENE)    
Max Wind Speed 8 mph    
Max Gust Speed 25 mph    
Visibility 10 miles    
Events      
T = Trace of Precipitation, MM = Missing Value Source: NWS Daily Summary

Daily Weather History Graph

Daily Weather History Graph

Search for Another Location

Airport or City:

Trip Planner

Search our weather history database for the weather conditions in past years. The results will help you decide how hot, cold, wet, or windy it might be!

Date:

Astronomy

Jun. 22, 2013 Rise Set
Actual Time 4:21 AM AKDT 11:42 PM AKDT
Civil Twilight 2:34 AM AKDT 1:29 AM AKDT
Nautical Twilight Sun does not rise Sun does not rise
Astronomical Twilight Sun does not rise Sun does not rise
Moon 10:36 PM AKDT (6/22) 4:13 AM AKDT (6/22)
Length of Visible Light 22h 55m
Length of Day
19h 20m
Waxing Gibbous, 99% of the Moon is Illuminated
Jun 22
Waxing Gibbous
Jun 23
Full
Jun 29
Last Quarter
Jul 7
New
Jul 15
First Quarter

Hourly Weather History & Observations

Time (AKDT) Temp. Dew Point Humidity Pressure Visibility Wind Dir Wind Speed Gust Speed Precip Events Conditions
12:53 AM 51.1 °F 44.1 °F 77% 30.06 in 10.0 mi Calm Calm - N/A   Mostly Cloudy
1:53 AM 51.1 °F 44.1 °F 77% 30.06 in 10.0 mi Calm Calm - N/A   Mostly Cloudy
2:53 AM 48.9 °F 45.0 °F 86% 30.06 in 10.0 mi Calm Calm - N/A   Mostly Cloudy
3:53 AM 46.9 °F 43.0 °F 86% 30.04 in 10.0 mi Calm Calm - N/A   Scattered Clouds
4:53 AM 45.0 °F 42.1 °F 90% 30.03 in 10.0 mi Calm Calm - N/A   Mostly Cloudy
5:53 AM 46.9 °F 43.0 °F 86% 30.02 in 10.0 mi Calm Calm - N/A   Mostly Cloudy
6:18 AM 51.8 °F 44.6 °F 76% 30.01 in 10.0 mi Calm Calm - N/A   Mostly Cloudy
6:53 AM 52.0 °F 45.0 °F 77% 30.01 in 10.0 mi North 3.5 mph - N/A   Mostly Cloudy
7:53 AM 54.0 °F 43.0 °F 66% 30.00 in 10.0 mi Calm Calm - N/A   Overcast
8:53 AM 55.9 °F 44.1 °F 64% 29.98 in 10.0 mi NNE 5.8 mph - N/A   Mostly Cloudy
9:53 AM 57.0 °F 42.1 °F 57% 29.96 in 10.0 mi NE 8.1 mph - N/A   Mostly Cloudy
10:53 AM 60.1 °F 42.1 °F 51% 29.95 in 10.0 mi North 5.8 mph - N/A   Scattered Clouds
11:53 AM 63.0 °F 43.0 °F 48% 29.93 in 10.0 mi ENE 5.8 mph - N/A   Scattered Clouds
12:53 PM 63.0 °F 45.0 °F 52% 29.91 in 10.0 mi NW 8.1 mph - N/A   Scattered Clouds
1:53 PM 64.9 °F 46.0 °F 50% 29.88 in 9.0 mi NW 6.9 mph - N/A   Scattered Clouds
2:53 PM 66.0 °F 44.1 °F 45% 29.86 in 10.0 mi North 4.6 mph - N/A   Mostly Cloudy
3:53 PM 66.0 °F 44.1 °F 45% 29.83 in 10.0 mi NW 4.6 mph - N/A   Mostly Cloudy
4:53 PM 64.0 °F 44.1 °F 48% 29.83 in 10.0 mi WSW 4.6 mph - N/A   Mostly Cloudy
5:53 PM 64.9 °F 44.1 °F 47% 29.82 in 10.0 mi South 9.2 mph - N/A   Overcast
6:53 PM 63.0 °F 42.1 °F 46% 29.81 in 10.0 mi SSE 13.8 mph 23.0 mph N/A   Overcast
7:53 PM 63.0 °F 41.0 °F 45% 29.79 in 10.0 mi SSE 16.1 mph 24.2 mph N/A   Overcast
8:53 PM 62.1 °F 43.0 °F 50% 29.79 in 10.0 mi SSE 11.5 mph 24.2 mph N/A   Overcast
9:53 PM 62.1 °F 41.0 °F 46% 29.78 in 10.0 mi SSE 17.3 mph 25.3 mph N/A   Mostly Cloudy
10:53 PM 61.0 °F 43.0 °F 52% 29.78 in 10.0 mi SSE 11.5 mph 19.6 mph N/A   Mostly Cloudy
11:53 PM 61.0 °F 41.0 °F 48% 29.78 in 10.0 mi SE 11.5 mph 18.4 mph N/A   Mostly Cloudy